Location: Newark
(54.3386°S, 169.8415°W)
Time: 14:37:29
(UTC+00:00)

Transit 2A Rocket - Pass Details

Date: 28 October 2019
Orbit: 594 x 909 km, 66.7° (Epoch: 21 November)

Event Time Altitude Azimuth Distance (km) Brightness Sun altitude
Rises 03:45:45 0° 306° (NW) 3,286 9.3 21.8°
Reaches altitude 10° 03:48:07 10° 302° (WNW) 2,408 9.0 21.4°
Maximum altitude 03:53:40 61° 221° (SW) 981 6.2 20.6°
Drops below altitude 10° 03:59:40 10° 140° (SE) 2,593 7.4 19.8°
Sets 04:02:18 0° 136° (SE) 3,557 8.0 19.4°
